Tracking 30696 objects as of 15-Jun-2025
HD Live streaming from Space Station
objects crossing your sky now

STARLINK-32833

Track STARLINK-32833 now!
10-day predictions
STARLINK-32833 is classified as:


NORAD ID: 62873
Int'l Code: 2025-022V
Perigee: 447.4 km
Apogee: 487.4 km
Inclination: 53.2 °
Period: 93.8 minutes
Semi major axis: 6838 km
RCS: Unknown
Launch date: February 1, 2025
Source: United States (US)
Launch site: AIR FORCE WESTERN TEST RANGE (AFWTR)
Your satellite tracking list
Your tracking list is empty




NASA's NSSDC Master Catalog

Two Line Element Set (TLE):
1 62873U 25022V   25165.37946213 -.03234850  00000-0 -10473+0 0  9992
2 62873  53.1588 297.8116 0029238  19.3770 340.8337 15.35230871 20794
Source of the keplerian elements: AFSPC